owner,sensor,date,latitude,longitude,vertical_datum,direction_of_sea_water_velocity,sea_water_speed,upward_sea_water_velocity,qcFlag 
ADCP,ioos:station:wmo:42372:1,2015-03-01T00:24:00Z,27.7800,-90.5180,13.3,147.0,90.2,-99999.0,'1111122,1111122,1199999999' 
ADCP,ioos:station:wmo:42372:1,2015-03-01T01:14:00Z,27.7800,-90.5180,13.4,155.0,62.4,-99999.0,'1111122,1111122,1199999999' 
ADCP,ioos:station:wmo:42372:1,2015-03-01T02:24:00Z,27.7800,-90.5180,13.4,164.0,21.3,-99999.0,'1111122,1111122,1199999999' 
ADCP,ioos:station:wmo:42372:1,2015-03-01T03:24:00Z,27.7800,-90.5180,13.4,162.0,16.4,0.0,'1111122,1111122,1114422' 
ADCP,ioos:station:wmo:42372:1,2015-03-01T04:24:00Z,27.7800,-90.5180,13.3,163.0,22.1,-99999.0,'1111122,1111122,1199999999' 
ADCP,ioos:station:wmo:42372:1,2015-03-01T05:24:00Z,27.7800,-90.5180,13.3,176.0,17.3,0.0,'1111122,1111122,1114422' 
ADCP,ioos:station:wmo:42372:1,2015-03-01T06:24:00Z,27.7800,-90.5180,13.2,164.0,26.2,0.0,'1111122,1111122,1114422' 
ADCP,ioos:station:wmo:42372:1,2015-03-01T07:24:00Z,27.7800,-90.5180,13.2,149.0,29.9,0.0,'1111122,1111122,1114422' 
ADCP,ioos:station:wmo:42372:1,2015-03-01T08:24:00Z,27.7800,-90.5180,13.2,148.0,58.1,0.0,'1111122,1111122,1114422' 
ADCP,ioos:station:wmo:42372:1,2015-03-01T09:24:00Z,27.7800,-90.5180,13.1,123.0,73.7,-99999.0,'1111122,1111122,1199999999' 
ADCP,ioos:station:wmo:42372:1,2015-03-01T10:24:00Z,27.7800,-90.5180,12.9,81.0,86.1,-99999.0,'1111122,1111122,1199999999' 
ADCP,ioos:station:wmo:42372:1,2015-03-01T11:24:00Z,27.7800,-90.5180,12.9,78.0,87.3,0.0,'1111122,1111122,1114422' 
ADCP,ioos:station:wmo:42372:1,2015-03-01T12:24:00Z,27.7800,-90.5180,12.9,82.0,90.4,-99999.0,'1111122,1111122,1199999999' 
ADCP,ioos:station:wmo:42372:1,2015-03-01T13:24:00Z,27.7800,-90.5180,13.1,87.0,95.9,0.0,'1111122,1111122,1114422' 
ADCP,ioos:station:wmo:42372:1,2015-03-01T15:14:00Z,27.7800,-90.5180,13.2,125.0,104.1,-99999.0,'1111122,1111122,1199999999' 
ADCP,ioos:station:wmo:42372:1,2015-03-01T16:24:00Z,27.7800,-90.5180,13.3,132.0,99.0,-99999.0,'1111122,1111122,1199999999' 
ADCP,ioos:station:wmo:42372:1,2015-03-01T17:24:00Z,27.7800,-90.5180,13.3,141.0,95.5,-99999.0,'1111122,1111122,1199999999' 
ADCP,ioos:station:wmo:42372:1,2015-03-01T18:24:00Z,27.7800,-90.5180,13.3,141.0,72.7,0.0,'1111122,1111122,1114422' 
ADCP,ioos:station:wmo:42372:1,2015-03-01T19:24:00Z,27.7800,-90.5180,13.3,140.0,86.3,-99999.0,'1111122,1111122,1199999999' 
ADCP,ioos:station:wmo:42372:1,2015-03-01T20:24:00Z,27.7800,-90.5180,13.3,136.0,95.2,-99999.0,'1111122,1111122,1199999999' 
ADCP,ioos:station:wmo:42372:1,2015-03-01T21:24:00Z,27.7800,-90.5180,13.4,136.0,98.7,-99999.0,'1111122,1111122,1199999999' 
ADCP,ioos:station:wmo:42372:1,2015-03-01T22:24:00Z,27.7800,-90.5180,13.3,137.0,97.5,0.0,'1111122,1111122,1114422' 
ADCP,ioos:station:wmo:42372:1,2015-03-01T23:24:00Z,27.7800,-90.5180,13.3,129.0,104.5,0.0,'1111122,1111122,1114422' 
ADCP,ioos:station:wmo:42372:1,2015-03-02T01:24:00Z,27.7800,-90.5180,13.4,141.0,82.7,-99999.0,'1111122,1111122,1199999999' 
ADCP,ioos:station:wmo:42372:1,2015-03-02T02:24:00Z,27.7800,-90.5180,13.4,142.0,83.4,0.0,'1111122,1111122,1114422' 
ADCP,ioos:station:wmo:42372:1,2015-03-02T03:24:00Z,27.7800,-90.5180,13.4,148.0,77.2,-99999.0,'1111122,1111122,1199999999' 
ADCP,ioos:station:wmo:42372:1,2015-03-02T04:14:00Z,27.7800,-90.5180,13.4,153.0,62.3,0.0,'1111122,1111122,1114422' 
ADCP,ioos:station:wmo:42372:1,2015-03-02T05:24:00Z,27.7800,-90.5180,13.3,155.0,43.2,-99999.0,'1111122,1111122,1199999999' 
ADCP,ioos:station:wmo:42372:1,2015-03-02T06:24:00Z,27.7800,-90.5180,13.3,154.0,53.9,-99999.0,'1111122,1111122,1199999999' 
ADCP,ioos:station:wmo:42372:1,2015-03-02T07:24:00Z,27.7800,-90.5180,13.3,144.0,64.4,-99999.0,'1111122,1111122,1199999999' 
ADCP,ioos:station:wmo:42372:1,2015-03-02T08:24:00Z,27.7800,-90.5180,13.3,134.0,65.1,-99999.0,'1111122,1111122,1199999999' 
ADCP,ioos:station:wmo:42372:1,2015-03-02T09:24:00Z,27.7800,-90.5180,13.2,123.0,66.6,-99999.0,'1111122,1111122,1199999999' 
ADCP,ioos:station:wmo:42372:1,2015-03-02T11:24:00Z,27.7800,-90.5180,13.2,90.0,76.8,-99999.0,'1111122,1111122,1199999999' 
ADCP,ioos:station:wmo:42372:1,2015-03-02T12:24:00Z,27.7800,-90.5180,13.2,87.0,80.5,-99999.0,'1111122,1111122,1199999999' 
ADCP,ioos:station:wmo:42372:1,2015-03-02T13:24:00Z,27.7800,-90.5180,13.2,87.0,79.2,-99999.0,'1111122,1111122,1199999999' 
ADCP,ioos:station:wmo:42372:1,2015-03-02T14:24:00Z,27.7800,-90.5180,13.2,99.0,76.1,0.0,'1111122,1111122,1114422' 
ADCP,ioos:station:wmo:42372:1,2015-03-02T15:14:00Z,27.7800,-90.5180,13.3,101.0,78.3,-99999.0,'1111122,1111122,1199999999' 
ADCP,ioos:station:wmo:42372:1,2015-03-02T16:24:00Z,27.7800,-90.5180,13.3,99.0,82.1,-99999.0,'1111122,1111122,1199999999' 
ADCP,ioos:station:wmo:42372:1,2015-03-02T17:24:00Z,27.7800,-90.5180,13.3,100.0,82.2,-99999.0,'1111122,1111122,1199999999' 
ADCP,ioos:station:wmo:42372:1,2015-03-02T18:24:00Z,27.7800,-90.5180,13.4,105.0,80.6,0.0,'1111122,1111122,1114422' 
ADCP,ioos:station:wmo:42372:1,2015-03-02T19:24:00Z,27.7800,-90.5180,13.4,99.0,81.5,0.0,'1111122,1111122,1114422' 
ADCP,ioos:station:wmo:42372:1,2015-03-02T20:24:00Z,27.7800,-90.5180,13.4,90.0,81.4,0.0,'1111122,1111122,1114422' 
ADCP,ioos:station:wmo:42372:1,2015-03-02T21:24:00Z,27.7800,-90.5180,13.4,95.0,80.6,0.0,'1111122,1111122,1114422' 
ADCP,ioos:station:wmo:42372:1,2015-03-02T22:14:00Z,27.7800,-90.5180,13.4,81.0,89.2,-99999.0,'1111122,1111122,1199999999' 
ADCP,ioos:station:wmo:42372:1,2015-03-02T23:24:00Z,27.7800,-90.5180,13.4,87.0,82.2,-99999.0,'1111122,1111122,1199999999' 
ADCP,ioos:station:wmo:42372:1,2015-03-03T00:24:00Z,27.7800,-90.5180,13.4,92.0,78.4,-99999.0,'1111122,1111122,1199999999' 
ADCP,ioos:station:wmo:42372:1,2015-03-03T01:24:00Z,27.7800,-90.5180,13.4,89.0,73.9,0.0,'1111122,1111122,1114422' 
ADCP,ioos:station:wmo:42372:1,2015-03-03T02:24:00Z,27.7800,-90.5180,13.4,93.0,76.2,-99999.0,'1111122,1111122,1199999999' 
ADCP,ioos:station:wmo:42372:1,2015-03-03T03:24:00Z,27.7800,-90.5180,13.4,93.0,74.2,-99999.0,'1111122,1111122,1199999999' 
ADCP,ioos:station:wmo:42372:1,2015-03-03T04:24:00Z,27.7800,-90.5180,13.3,96.0,77.2,-99999.0,'1111122,1111122,1199999999' 
ADCP,ioos:station:wmo:42372:1,2015-03-03T05:24:00Z,27.7800,-90.5180,13.3,86.0,79.5,-99999.0,'1111122,1111122,1199999999' 
ADCP,ioos:station:wmo:42372:1,2015-03-03T06:24:00Z,27.7800,-90.5180,13.2,83.0,81.3,-99999.0,'1111122,1111122,1199999999' 
ADCP,ioos:station:wmo:42372:1,2015-03-03T06:34:00Z,27.7800,-90.5180,13.2,82.0,80.9,-99999.0,'1111122,1111122,1199999999' 
ADCP,ioos:station:wmo:42372:1,2015-03-03T08:14:00Z,27.7800,-90.5180,13.3,107.0,67.2,-99999.0,'1111122,1111122,1199999999' 
ADCP,ioos:station:wmo:42372:1,2015-03-03T09:24:00Z,27.7800,-90.5180,13.2,104.0,66.6,-99999.0,'1111122,1111122,1199999999' 
ADCP,ioos:station:wmo:42372:1,2015-03-03T10:24:00Z,27.7800,-90.5180,13.3,107.0,62.2,0.0,'1111122,1111122,1114422' 
ADCP,ioos:station:wmo:42372:1,2015-03-03T11:24:00Z,27.7800,-90.5180,13.2,103.0,66.0,-99999.0,'1111122,1111122,1199999999' 
ADCP,ioos:station:wmo:42372:1,2015-03-03T12:24:00Z,27.7800,-90.5180,13.3,100.0,64.3,0.0,'1111122,1111122,1114422' 
ADCP,ioos:station:wmo:42372:1,2015-03-03T13:24:00Z,27.7800,-90.5180,13.3,85.0,69.1,0.0,'1111122,1111122,1114422' 
ADCP,ioos:station:wmo:42372:1,2015-03-03T14:24:00Z,27.7800,-90.5180,13.3,91.0,67.8,-99999.0,'1111122,1111122,1199999999' 
ADCP,ioos:station:wmo:42372:1,2015-03-03T15:14:00Z,27.7800,-90.5180,13.3,89.0,66.5,-99999.0,'1111122,1111122,1199999999' 
ADCP,ioos:station:wmo:42372:1,2015-03-03T16:14:00Z,27.7800,-90.5180,13.3,89.0,68.0,0.0,'1111122,1111122,1114422' 
ADCP,ioos:station:wmo:42372:1,2015-03-03T17:24:00Z,27.7800,-90.5180,13.4,86.0,70.2,0.0,'1111122,1111122,1114422' 
ADCP,ioos:station:wmo:42372:1,2015-03-03T19:24:00Z,27.7800,-90.5180,13.4,89.0,64.1,0.0,'1111122,1111122,1114422' 
ADCP,ioos:station:wmo:42372:1,2015-03-03T21:24:00Z,27.7800,-90.5180,13.4,82.0,60.3,-99999.0,'1111122,1111122,1199999999' 
ADCP,ioos:station:wmo:42372:1,2015-03-03T22:14:00Z,27.7800,-90.5180,13.4,78.0,59.6,0.0,'1111122,1111122,1114422' 
ADCP,ioos:station:wmo:42372:1,2015-03-04T00:24:00Z,27.7800,-90.5180,13.4,79.0,53.1,-99999.0,'1111122,1111122,1199999999' 
ADCP,ioos:station:wmo:42372:1,2015-03-04T01:24:00Z,27.7800,-90.5180,13.4,81.0,49.5,-99999.0,'1111122,1111122,1199999999' 
ADCP,ioos:station:wmo:42372:1,2015-03-04T02:24:00Z,27.7800,-90.5180,13.4,75.0,47.9,-99999.0,'1111122,1111122,1199999999' 
ADCP,ioos:station:wmo:42372:1,2015-03-04T03:24:00Z,27.7800,-90.5180,13.4,79.0,47.5,-99999.0,'1111122,1111122,1199999999' 
ADCP,ioos:station:wmo:42372:1,2015-03-04T04:24:00Z,27.7800,-90.5180,13.4,81.0,46.3,-99999.0,'1111122,1111122,1199999999' 
ADCP,ioos:station:wmo:42372:1,2015-03-04T05:24:00Z,27.7800,-90.5180,13.4,83.0,47.5,-99999.0,'1111122,1111122,1199999999' 
ADCP,ioos:station:wmo:42372:1,2015-03-04T06:24:00Z,27.7800,-90.5180,13.3,82.0,47.9,-99999.0,'1111122,1111122,1199999999' 
ADCP,ioos:station:wmo:42372:1,2015-03-04T07:24:00Z,27.7800,-90.5180,13.3,91.0,46.2,-99999.0,'1111122,1111122,1199999999' 
ADCP,ioos:station:wmo:42372:1,2015-03-04T08:24:00Z,27.7800,-90.5180,13.3,90.0,48.4,-99999.0,'1111122,1111122,1199999999' 
ADCP,ioos:station:wmo:42372:1,2015-03-04T09:24:00Z,27.7800,-90.5180,13.3,95.0,50.1,-99999.0,'1111122,1111122,1199999999' 
ADCP,ioos:station:wmo:42372:1,2015-03-04T10:24:00Z,27.7800,-90.5180,13.3,98.0,48.3,-99999.0,'1111122,1111122,1199999999' 
ADCP,ioos:station:wmo:42372:1,2015-03-04T11:24:00Z,27.7800,-90.5180,13.3,91.0,45.3,-99999.0,'1111122,1111122,1199999999' 
ADCP,ioos:station:wmo:42372:1,2015-03-04T12:24:00Z,27.7800,-90.5180,13.3,93.0,44.4,-99999.0,'1111122,1111122,1199999999' 
ADCP,ioos:station:wmo:42372:1,2015-03-04T13:24:00Z,27.7800,-90.5180,13.3,96.0,42.2,-99999.0,'1111122,1111122,1199999999' 
ADCP,ioos:station:wmo:42372:1,2015-03-04T14:24:00Z,27.7800,-90.5180,13.3,101.0,41.0,0.0,'1111122,1111122,1114422' 
ADCP,ioos:station:wmo:42372:1,2015-03-04T15:14:00Z,27.7800,-90.5180,13.3,89.0,40.5,-99999.0,'1111122,1111122,1199999999' 
ADCP,ioos:station:wmo:42372:1,2015-03-04T16:24:00Z,27.7800,-90.5180,13.3,89.0,38.6,-99999.0,'1111122,1111122,1199999999' 
ADCP,ioos:station:wmo:42372:1,2015-03-04T17:24:00Z,27.7800,-90.5180,13.4,93.0,37.4,0.0,'1111122,1111122,1114422' 
ADCP,ioos:station:wmo:42372:1,2015-03-04T19:24:00Z,27.7800,-90.5180,13.4,86.0,35.9,-99999.0,'1111122,1111122,1199999999' 
ADCP,ioos:station:wmo:42372:1,2015-03-04T20:24:00Z,27.7800,-90.5180,13.4,66.0,42.2,0.0,'1111122,1111122,1114422' 
ADCP,ioos:station:wmo:42372:1,2015-03-04T22:24:00Z,27.7800,-90.5180,13.4,67.0,41.3,-99999.0,'1111122,1111122,1199999999' 
ADCP,ioos:station:wmo:42372:1,2015-03-04T23:24:00Z,27.7800,-90.5180,13.4,66.0,45.0,0.0,'1111122,1111122,1114422' 
ADCP,ioos:station:wmo:42372:1,2015-03-05T00:24:00Z,27.7800,-90.5180,13.4,67.0,45.9,-99999.0,'1111122,1111122,1199999999' 
ADCP,ioos:station:wmo:42372:1,2015-03-05T01:14:00Z,27.7800,-90.5180,13.4,76.0,40.4,-99999.0,'1111122,1111122,1199999999' 
ADCP,ioos:station:wmo:42372:1,2015-03-05T02:24:00Z,27.7800,-90.5180,13.4,71.0,41.3,-99999.0,'1111122,1111122,1199999999' 
ADCP,ioos:station:wmo:42372:1,2015-03-05T03:24:00Z,27.7800,-90.5180,13.4,75.0,35.5,-99999.0,'1111122,1111122,1199999999' 
ADCP,ioos:station:wmo:42372:1,2015-03-05T04:24:00Z,27.7800,-90.5180,13.4,75.0,32.0,-99999.0,'1111122,1111122,1199999999' 
ADCP,ioos:station:wmo:42372:1,2015-03-05T05:24:00Z,27.7800,-90.5180,13.4,76.0,28.6,-99999.0,'1111122,1111122,1199999999' 
ADCP,ioos:station:wmo:42372:1,2015-03-05T06:24:00Z,27.7800,-90.5180,13.4,75.0,27.8,-99999.0,'1111122,1111122,1199999999' 
ADCP,ioos:station:wmo:42372:1,2015-03-05T07:24:00Z,27.7800,-90.5180,13.4,80.0,27.7,-99999.0,'1111122,1111122,1199999999' 
ADCP,ioos:station:wmo:42372:1,2015-03-05T08:24:00Z,27.7800,-90.5180,13.3,84.0,27.6,-99999.0,'1111122,1111122,1199999999' 
ADCP,ioos:station:wmo:42372:1,2015-03-05T09:24:00Z,27.7800,-90.5180,13.4,91.0,28.2,-99999.0,'1111122,1111122,1199999999' 
ADCP,ioos:station:wmo:42372:1,2015-03-05T10:24:00Z,27.7800,-90.5180,13.4,79.0,27.3,-99999.0,'1111122,1111122,1199999999' 
ADCP,ioos:station:wmo:42372:1,2015-03-05T11:24:00Z,27.7800,-90.5180,13.3,81.0,29.3,-99999.0,'1111122,1111122,1199999999' 
ADCP,ioos:station:wmo:42372:1,2015-03-05T12:24:00Z,27.7800,-90.5180,13.4,72.0,28.4,-99999.0,'1111122,1111122,1199999999' 
ADCP,ioos:station:wmo:42372:1,2015-03-05T13:24:00Z,27.7800,-90.5180,13.4,74.0,28.4,0.0,'1111122,1111122,1114422' 
ADCP,ioos:station:wmo:42372:1,2015-03-05T14:24:00Z,27.7800,-90.5180,13.4,67.0,27.6,-99999.0,'1111122,1111122,1199999999' 
ADCP,ioos:station:wmo:42372:1,2015-03-05T15:14:00Z,27.7800,-90.5180,13.5,55.0,26.4,-99999.0,'1111122,1111122,1199999999' 
ADCP,ioos:station:wmo:42372:1,2015-03-05T16:24:00Z,27.7800,-90.5180,13.5,69.0,21.7,-99999.0,'1111122,1111122,1199999999' 
ADCP,ioos:station:wmo:42372:1,2015-03-05T17:24:00Z,27.7800,-90.5180,13.5,77.0,14.7,0.0,'1111122,1111122,1114422' 
ADCP,ioos:station:wmo:42372:1,2015-03-05T18:24:00Z,27.7800,-90.5180,13.5,78.0,11.9,-99999.0,'1111122,1111122,1199999999' 
ADCP,ioos:station:wmo:42372:1,2015-03-05T19:24:00Z,27.7800,-90.5180,13.5,50.0,10.4,0.0,'1111122,1111122,1114422' 
ADCP,ioos:station:wmo:42372:1,2015-03-05T20:24:00Z,27.7800,-90.5180,13.5,46.0,6.6,-99999.0,'1111122,1111122,1199999999' 
ADCP,ioos:station:wmo:42372:1,2015-03-05T21:24:00Z,27.7800,-90.5180,13.5,77.0,2.7,0.0,'1111122,1111122,1114422' 
ADCP,ioos:station:wmo:42372:1,2015-03-05T22:14:00Z,27.7800,-90.5180,13.5,53.0,5.6,0.0,'1111122,1111122,1114422' 
ADCP,ioos:station:wmo:42372:1,2015-03-05T23:24:00Z,27.7800,-90.5180,13.5,328.0,4.6,-99999.0,'1111122,1111122,1199999999' 
ADCP,ioos:station:wmo:42372:1,2015-03-06T00:24:00Z,27.7800,-90.5180,13.5,313.0,7.2,0.0,'1111122,1111122,1114422' 
ADCP,ioos:station:wmo:42372:1,2015-03-06T01:14:00Z,27.7800,-90.5180,13.5,338.0,8.2,-99999.0,'1111122,1111122,1199999999' 
ADCP,ioos:station:wmo:42372:1,2015-03-06T02:24:00Z,27.7800,-90.5180,13.5,298.0,8.6,-99999.0,'1111122,1111122,1199999999' 
ADCP,ioos:station:wmo:42372:1,2015-03-06T03:24:00Z,27.7800,-90.5180,13.5,326.0,10.3,-99999.0,'1111122,1111122,1199999999' 
ADCP,ioos:station:wmo:42372:1,2015-03-06T04:24:00Z,27.7800,-90.5180,13.5,338.0,20.0,0.0,'1111122,1111122,1114422' 
ADCP,ioos:station:wmo:42372:1,2015-03-06T05:24:00Z,27.7800,-90.5180,13.5,349.0,24.3,-99999.0,'1111122,1111122,1199999999' 
ADCP,ioos:station:wmo:42372:1,2015-03-06T06:24:00Z,27.7800,-90.5180,13.5,2.0,25.8,-99999.0,'1111122,1111122,1199999999' 
ADCP,ioos:station:wmo:42372:1,2015-03-06T09:24:00Z,27.7800,-90.5180,13.5,24.0,32.8,-99999.0,'1111122,1111122,1199999999' 
ADCP,ioos:station:wmo:42372:1,2015-03-06T10:24:00Z,27.7800,-90.5180,13.4,31.0,31.9,-99999.0,'1111122,1111122,1199999999' 
ADCP,ioos:station:wmo:42372:1,2015-03-06T11:24:00Z,27.7800,-90.5180,13.4,38.0,33.9,-99999.0,'1111122,1111122,1199999999' 
ADCP,ioos:station:wmo:42372:1,2015-03-06T12:24:00Z,27.7800,-90.5180,13.4,47.0,33.2,0.0,'1111122,1111122,1114422' 
ADCP,ioos:station:wmo:42372:1,2015-03-06T13:24:00Z,27.7800,-90.5180,13.4,44.0,33.7,-99999.0,'1111122,1111122,1199999999' 
ADCP,ioos:station:wmo:42372:1,2015-03-06T14:24:00Z,27.7800,-90.5180,13.6,61.0,27.7,-99999.0,'1111122,1111122,1199999999' 
ADCP,ioos:station:wmo:42372:1,2015-03-06T15:14:00Z,27.7800,-90.5180,13.6,78.0,22.3,0.0,'1111122,1111122,1114422' 
ADCP,ioos:station:wmo:42372:1,2015-03-06T16:14:00Z,27.7800,-90.5180,13.6,88.0,24.1,0.0,'1111122,1111122,1114422' 
ADCP,ioos:station:wmo:42372:1,2015-03-06T17:24:00Z,27.7800,-90.5180,13.6,128.0,22.8,0.0,'1111122,1111122,1114422' 
ADCP,ioos:station:wmo:42372:1,2015-03-06T18:14:00Z,27.7800,-90.5180,13.6,135.0,24.0,0.0,'1111122,1111122,1114422' 
ADCP,ioos:station:wmo:42372:1,2015-03-06T19:24:00Z,27.7800,-90.5180,13.6,140.0,24.2,-99999.0,'1111122,1111122,1199999999' 
ADCP,ioos:station:wmo:42372:1,2015-03-06T20:24:00Z,27.7800,-90.5180,13.4,145.0,25.0,0.0,'1111122,1111122,1114422' 
ADCP,ioos:station:wmo:42372:1,2015-03-06T21:24:00Z,27.7800,-90.5180,13.4,121.0,27.6,-99999.0,'1111122,1111122,1199999999' 
ADCP,ioos:station:wmo:42372:1,2015-03-06T22:24:00Z,27.7800,-90.5180,13.4,102.0,27.7,-99999.0,'1111122,1111122,1199999999' 
ADCP,ioos:station:wmo:42372:1,2015-03-06T23:24:00Z,27.7800,-90.5180,13.4,106.0,25.4,-99999.0,'1111122,1111122,1199999999' 
ADCP,ioos:station:wmo:42372:1,2015-03-07T00:24:00Z,27.7800,-90.5180,13.4,95.0,23.6,-99999.0,'1111122,1111122,1199999999' 
ADCP,ioos:station:wmo:42372:1,2015-03-07T01:24:00Z,27.7800,-90.5180,13.4,137.0,4.5,-99999.0,'1111122,1111122,1199999999' 
ADCP,ioos:station:wmo:42372:1,2015-03-07T02:14:00Z,27.7800,-90.5180,13.4,309.0,1.4,-99999.0,'1111122,1111122,1199999999' 
ADCP,ioos:station:wmo:42372:1,2015-03-07T03:24:00Z,27.7800,-90.5180,13.4,220.0,5.5,-99999.0,'1111122,1111122,1199999999' 
ADCP,ioos:station:wmo:42372:1,2015-03-07T04:24:00Z,27.7800,-90.5180,13.4,283.0,4.7,-99999.0,'1111122,1111122,1199999999' 
ADCP,ioos:station:wmo:42372:1,2015-03-07T05:24:00Z,27.7800,-90.5180,13.4,162.0,6.7,-99999.0,'1111122,1111122,1199999999' 
ADCP,ioos:station:wmo:42372:1,2015-03-07T06:24:00Z,27.7800,-90.5180,13.4,155.0,16.5,-99999.0,'1111122,1111122,1199999999' 
ADCP,ioos:station:wmo:42372:1,2015-03-07T06:34:00Z,27.7800,-90.5180,13.4,127.0,4.5,-99999.0,'1111122,1111122,1199999999' 
ADCP,ioos:station:wmo:42372:1,2015-03-07T08:24:00Z,27.7800,-90.5180,13.4,100.0,17.8,-99999.0,'1111122,1111122,1199999999' 
ADCP,ioos:station:wmo:42372:1,2015-03-07T09:24:00Z,27.7800,-90.5180,13.4,87.0,24.4,-99999.0,'1111122,1111122,1199999999' 
ADCP,ioos:station:wmo:42372:1,2015-03-07T10:24:00Z,27.7800,-90.5180,13.4,74.0,26.8,-99999.0,'1111122,1111122,1199999999' 
ADCP,ioos:station:wmo:42372:1,2015-03-07T12:24:00Z,27.7800,-90.5180,13.4,75.0,30.7,-99999.0,'1111122,1111122,1199999999' 
ADCP,ioos:station:wmo:42372:1,2015-03-07T13:24:00Z,27.7800,-90.5180,13.4,85.0,32.0,0.0,'1111122,1111122,1114422' 
ADCP,ioos:station:wmo:42372:1,2015-03-07T14:24:00Z,27.7800,-90.5180,13.4,82.0,36.1,-99999.0,'1111122,1111122,1199999999' 
ADCP,ioos:station:wmo:42372:1,2015-03-07T15:14:00Z,27.7800,-90.5180,13.4,78.0,38.5,0.0,'1111122,1111122,1114422' 
ADCP,ioos:station:wmo:42372:1,2015-03-07T16:24:00Z,27.7800,-90.5180,13.4,74.0,40.0,0.0,'1111122,1111122,1114422' 
ADCP,ioos:station:wmo:42372:1,2015-03-07T17:24:00Z,27.7800,-90.5180,13.4,79.0,42.8,-99999.0,'1111122,1111122,1199999999' 
ADCP,ioos:station:wmo:42372:1,2015-03-07T18:24:00Z,27.7800,-90.5180,13.4,85.0,42.8,-99999.0,'1111122,1111122,1199999999' 
ADCP,ioos:station:wmo:42372:1,2015-03-07T19:24:00Z,27.7800,-90.5180,13.3,88.0,41.0,-99999.0,'1111122,1111122,1199999999' 
ADCP,ioos:station:wmo:42372:1,2015-03-07T20:24:00Z,27.7800,-90.5180,13.4,93.0,38.7,0.0,'1111122,1111122,1114422' 
ADCP,ioos:station:wmo:42372:1,2015-03-07T21:24:00Z,27.7800,-90.5180,13.4,98.0,42.2,0.0,'1111122,1111122,1114422' 
ADCP,ioos:station:wmo:42372:1,2015-03-07T22:24:00Z,27.7800,-90.5180,13.4,95.0,42.5,0.0,'1111122,1111122,1114422' 
ADCP,ioos:station:wmo:42372:1,2015-03-07T23:24:00Z,27.7800,-90.5180,13.4,104.0,37.8,0.0,'1111122,1111122,1114422' 
ADCP,ioos:station:wmo:42372:1,2015-03-08T00:24:00Z,27.7800,-90.5180,13.4,150.0,39.5,0.0,'1111122,1111122,1114422' 
ADCP,ioos:station:wmo:42372:1,2015-03-08T01:14:00Z,27.7800,-90.5180,13.4,165.0,34.6,0.0,'1111122,1111122,1114422' 
ADCP,ioos:station:wmo:42372:1,2015-03-08T02:24:00Z,27.7800,-90.5180,13.4,145.0,15.5,-99999.0,'1111122,1111122,1199999999' 
ADCP,ioos:station:wmo:42372:1,2015-03-08T03:24:00Z,27.7800,-90.5180,13.4,146.0,11.3,0.0,'1111122,1111122,1114422' 
ADCP,ioos:station:wmo:42372:1,2015-03-08T04:24:00Z,27.7800,-90.5180,13.4,174.0,12.2,-99999.0,'1111122,1111122,1199999999' 
ADCP,ioos:station:wmo:42372:1,2015-03-08T05:24:00Z,27.7800,-90.5180,13.4,151.0,11.2,-99999.0,'1111122,1111122,1199999999' 
ADCP,ioos:station:wmo:42372:1,2015-03-08T06:24:00Z,27.7800,-90.5180,13.4,118.0,5.2,-99999.0,'1111122,1111122,1199999999' 
ADCP,ioos:station:wmo:42372:1,2015-03-08T06:34:00Z,27.7800,-90.5180,13.4,169.0,15.2,-99999.0,'1111122,1111122,1199999999' 
ADCP,ioos:station:wmo:42372:1,2015-03-08T08:24:00Z,27.7800,-90.5180,13.4,152.0,17.4,-99999.0,'1111122,1111122,1199999999' 
ADCP,ioos:station:wmo:42372:1,2015-03-08T09:24:00Z,27.7800,-90.5180,13.4,167.0,12.0,-99999.0,'1111122,1111122,1199999999' 
ADCP,ioos:station:wmo:42372:1,2015-03-08T10:24:00Z,27.7800,-90.5180,13.4,164.0,18.5,0.0,'1111122,1111122,1114422' 
ADCP,ioos:station:wmo:42372:1,2015-03-08T11:24:00Z,27.7800,-90.5180,13.4,151.0,35.0,0.0,'1111122,1111122,1114422' 
ADCP,ioos:station:wmo:42372:1,2015-03-08T12:24:00Z,27.7800,-90.5180,13.4,139.0,41.0,0.0,'1111122,1111122,1114422' 
ADCP,ioos:station:wmo:42372:1,2015-03-08T13:24:00Z,27.7800,-90.5180,13.4,149.0,51.6,-99999.0,'1111122,1111122,1199999999' 
ADCP,ioos:station:wmo:42372:1,2015-03-08T14:24:00Z,27.7800,-90.5180,13.4,135.0,50.4,0.0,'1111122,1111122,1114422' 
ADCP,ioos:station:wmo:42372:1,2015-03-08T16:24:00Z,27.7800,-90.5180,13.3,90.0,54.4,0.0,'1111122,1111122,1114422' 
ADCP,ioos:station:wmo:42372:1,2015-03-08T17:24:00Z,27.7800,-90.5180,13.4,94.0,54.3,-99999.0,'1111122,1111122,1199999999' 
ADCP,ioos:station:wmo:42372:1,2015-03-08T18:24:00Z,27.7800,-90.5180,13.4,76.0,63.7,0.0,'1111122,1111122,1114422' 
ADCP,ioos:station:wmo:42372:1,2015-03-08T19:24:00Z,27.7800,-90.5180,13.4,73.0,66.5,-99999.0,'1111122,1111122,1199999999' 
ADCP,ioos:station:wmo:42372:1,2015-03-08T20:24:00Z,27.7800,-90.5180,13.3,67.0,68.3,-99999.0,'1111122,1111122,1199999999' 
ADCP,ioos:station:wmo:42372:1,2015-03-08T21:24:00Z,27.7800,-90.5180,13.3,69.0,68.0,-99999.0,'1111122,1111122,1199999999' 
ADCP,ioos:station:wmo:42372:1,2015-03-08T22:24:00Z,27.7800,-90.5180,13.3,61.0,69.7,-99999.0,'1111122,1111122,1199999999' 
ADCP,ioos:station:wmo:42372:1,2015-03-08T23:24:00Z,27.7800,-90.5180,13.3,61.0,70.2,-99999.0,'1111122,1111122,1199999999' 
ADCP,ioos:station:wmo:42372:1,2015-03-09T00:24:00Z,27.7800,-90.5180,13.3,63.0,69.0,-99999.0,'1111122,1111122,1199999999' 
ADCP,ioos:station:wmo:42372:1,2015-03-09T01:24:00Z,27.7800,-90.5180,13.3,64.0,67.3,-99999.0,'1111122,1111122,1199999999' 
ADCP,ioos:station:wmo:42372:1,2015-03-09T02:24:00Z,27.7800,-90.5180,13.3,58.0,70.9,-99999.0,'1111122,1111122,1199999999' 
ADCP,ioos:station:wmo:42372:1,2015-03-09T03:24:00Z,27.7800,-90.5180,13.3,56.0,64.0,-99999.0,'1111122,1111122,1199999999' 
ADCP,ioos:station:wmo:42372:1,2015-03-09T04:24:00Z,27.7800,-90.5180,13.3,52.0,65.1,-99999.0,'1111122,1111122,1199999999' 
ADCP,ioos:station:wmo:42372:1,2015-03-09T05:24:00Z,27.7800,-90.5180,13.4,53.0,59.2,-99999.0,'1111122,1111122,1199999999' 
ADCP,ioos:station:wmo:42372:1,2015-03-09T06:24:00Z,27.7800,-90.5180,13.4,48.0,57.1,-99999.0,'1111122,1111122,1199999999' 
ADCP,ioos:station:wmo:42372:1,2015-03-09T06:34:00Z,27.7800,-90.5180,13.4,47.0,55.5,-99999.0,'1111122,1111122,1199999999' 
ADCP,ioos:station:wmo:42372:1,2015-03-09T07:14:00Z,27.7800,-90.5180,13.4,44.0,53.9,-99999.0,'1111122,1111122,1199999999' 
ADCP,ioos:station:wmo:42372:1,2015-03-09T10:24:00Z,27.7800,-90.5180,13.4,30.0,59.6,-99999.0,'1111122,1111122,1199999999' 
ADCP,ioos:station:wmo:42372:1,2015-03-09T11:24:00Z,27.7800,-90.5180,13.4,32.0,59.4,-99999.0,'1111122,1111122,1199999999' 
ADCP,ioos:station:wmo:42372:1,2015-03-09T12:24:00Z,27.7800,-90.5180,13.4,29.0,62.7,-99999.0,'1111122,1111122,1199999999' 
ADCP,ioos:station:wmo:42372:1,2015-03-09T13:24:00Z,27.7800,-90.5180,13.4,27.0,69.0,-99999.0,'1111122,1111122,1199999999' 
ADCP,ioos:station:wmo:42372:1,2015-03-09T14:24:00Z,27.7800,-90.5180,13.4,30.0,71.2,-99999.0,'1111122,1111122,1199999999' 
ADCP,ioos:station:wmo:42372:1,2015-03-09T15:14:00Z,27.7800,-90.5180,13.4,30.0,72.8,-99999.0,'1111122,1111122,1199999999' 
ADCP,ioos:station:wmo:42372:1,2015-03-09T16:24:00Z,27.7800,-90.5180,13.4,33.0,74.0,-99999.0,'1111122,1111122,1199999999' 
ADCP,ioos:station:wmo:42372:1,2015-03-09T17:24:00Z,27.7800,-90.5180,13.3,41.0,60.3,-99999.0,'1111122,1111122,1199999999' 
ADCP,ioos:station:wmo:42372:1,2015-03-09T19:24:00Z,27.7800,-90.5180,13.3,75.0,53.0,-99999.0,'1111122,1111122,1199999999' 